Home   Weather   Durham   Past weeks

Flag for USA Past Weather in Durham, North Carolina, USA — Yesterday and Last 2 Weeks

Now
54 °F

Passing clouds.


Feels Like: 54 °F
Forecast: 40 / 62 °F
Wind: No wind

Location: Raleigh-Durham International Airport

Current Time: Jan 19, 2017 at 6:43:59 pm

Latest Report: Jan 19, 2017 at 5:51 pm


Visibility: 10 mi

Pressure: 30.01 "Hg

Humidity: 59%

Dew Point: 40 °F

Location of DurhamLocation

Past Weather in Durham — Graph

°F

Durham Temperature Yesterday

Maximum temperature yesterday: 70 °F (at 12:51 pm)
Minimum temperature yesterday: 47 °F (at 10:51 pm)
Average temperature yesterday: 61 °F

High & Low Weather Summary for the Past Weeks

 TemperatureHumidityPressure
High75 °F (Jan 13, 1:51 pm)100% (Jan 11, 6:51 am)30.83 "Hg (Jan 11, 6:51 am)
Low9 °F (Jan 9, 7:51 am)28% (Jan 5, 12:51 pm)29.79 "Hg (Jan 4, 4:51 pm)
Average44 °F67%30.30 "Hg
* Reported Jan 4 4:51 pm — Jan 19 4:51 pm, Durham, Weather by CustomWeather, © 2017

Note: Actual official high and low records may vary slightly from our data, if they occured in-between our weather recording intervals... More about our weather records

Advertising

Durham Weather History for the Previous 24 Hours

Scroll right to see more
 ConditionsComfort  
Time TempWeatherWind HumidityBarometerVisibility
4:51 pm
Thu, Jan 19
58 °FPartly sunny.No wind50%30.01 "Hg10 mi
3:51 pm62 °FPassing clouds.No wind41%30.01 "Hg10 mi
2:51 pm62 °FPassing clouds.6 mph41%30.03 "Hg10 mi
1:51 pm60 °FScattered clouds.5 mph44%30.02 "Hg10 mi
12:51 pm59 °FScattered clouds.6 mph48%30.06 "Hg10 mi
11:51 am56 °FScattered clouds.No wind53%30.09 "Hg10 mi
10:51 am53 °FPartly sunny.No wind56%30.12 "Hg10 mi
9:51 am50 °FBroken clouds.5 mph63%30.12 "Hg10 mi
8:51 am45 °FScattered clouds.3 mph80%30.13 "Hg10 mi
7:51 am37 °FScattered clouds.No wind93%30.11 "Hg10 mi
6:51 am39 °FPassing clouds.3 mph86%30.10 "Hg10 mi
5:51 am36 °FPassing clouds.No wind89%30.07 "Hg10 mi
4:51 am39 °FPassing clouds.No wind86%30.07 "Hg10 mi
3:51 am37 °FPassing clouds.No wind89%30.06 "Hg10 mi
2:51 am40 °FPassing clouds.No wind83%30.08 "Hg10 mi
1:51 am42 °FPassing clouds.No wind76%30.06 "Hg10 mi
12:51 am46 °FPassing clouds.No wind66%30.06 "Hg10 mi
11:51 pm
Wed, Jan 18
47 °FPassing clouds.No wind64%30.07 "Hg10 mi
10:51 pm47 °FPassing clouds.3 mph64%30.06 "Hg10 mi
9:51 pm52 °FPassing clouds.3 mph50%30.06 "Hg10 mi
8:51 pm53 °FPassing clouds.5 mph48%30.05 "Hg10 mi
7:51 pm53 °FPassing clouds.3 mph51%30.03 "Hg10 mi
6:51 pm57 °FPassing clouds.No wind42%30.02 "Hg10 mi
Weather by CustomWeather, © 2017

See weather overviewHow to use our weather pages